• en France
  • Liste des pays
  • À 7 jours
  • Température de l'eau
  • Carte satellitaire
  • Carte météo
  • Widgets météo
  • user-avatar
    Se connecter

    Météo par heure à Quibdó

    Ce jour, 19 Février, Lundi

    Heure Température Précipitation Vent Pression Humidité
    00:00 +23°C° 0,3 mm 0 m/s 750 mmHg 93%
    01:00 +23°C° 0,3 mm 0 m/s 750 mmHg 93%
    02:00 +23°C° 0,5 mm 0 m/s 750 mmHg 93%
    03:00 +23°C° 0,5 mm 0 m/s 750 mmHg 93%
    04:00 +23°C° 0,5 mm 0 m/s 750 mmHg 94%
    05:00 +23°C° 0,1 mm 0 m/s 750 mmHg 93%
    06:00 +23°C° 0,1 mm 0 m/s 750 mmHg 93%
    07:00 +23°C° 0,1 mm 0 m/s 750 mmHg 93%
    08:00 +27°C° 0,1 mm 1 m/s 750 mmHg 87%
    09:00 +28°C° 0,1 mm 1 m/s 751 mmHg 82%
    10:00 +30°C° 0,1 mm 1 m/s 751 mmHg 77%
    11:00 +31°C° 0,3 mm 1 m/s 750 mmHg 73%
    12:00 +32°C° 0,3 mm 1 m/s 750 mmHg 68%
    13:00 +33°C° 0,3 mm 1 m/s 749 mmHg 64%
    14:00 +32°C° 0,4 mm 1 m/s 749 mmHg 68%
    15:00 +32°C° 0,4 mm 1 m/s 748 mmHg 72%
    16:00 +31°C° 0,4 mm 1 m/s 748 mmHg 75%
    17:00 +29°C° 0,7 mm 1 m/s 748 mmHg 82%
    18:00 +28°C° 0,7 mm 1 m/s 749 mmHg 88%
    19:00 +26°C° 0,7 mm 1 m/s 749 mmHg 94%
    20:00 +26°C° 0,1 mm 1 m/s 750 mmHg 94%
    21:00 +26°C° 0,1 mm 1 m/s 750 mmHg 93%
    22:00 +25°C° 0,1 mm 1 m/s 751 mmHg 93%
    23:00 +23°C° 0 mm 0 m/s 751 mmHg 93%

    Demain, 20 Février, Mardi

    Heure Température Précipitation Vent Pression Humidité
    00:00 +23°C° 0 mm 0 m/s 751 mmHg 92%
    01:00 +23°C° 0 mm 0 m/s 751 mmHg 92%
    02:00 +23°C° 0 mm 0 m/s 750 mmHg 92%
    03:00 +23°C° 0 mm 0 m/s 750 mmHg 92%
    04:00 +22°C° 0 mm 0 m/s 750 mmHg 92%
    05:00 +23°C° 0 mm 0 m/s 750 mmHg 92%
    06:00 +23°C° 0 mm 0 m/s 751 mmHg 91%
    07:00 +23°C° 0 mm 0 m/s 751 mmHg 91%
    08:00 +25°C° 0 mm 0 m/s 751 mmHg 82%
    09:00 +27°C° 0 mm 0 m/s 752 mmHg 73%
    10:00 +32°C° 0 mm 1 m/s 752 mmHg 64%
    11:00 +32°C° 0,1 mm 1 m/s 751 mmHg 61%
    12:00 +33°C° 0,1 mm 1 m/s 751 mmHg 58%
    13:00 +34°C° 0,1 mm 1 m/s 750 mmHg 55%
    14:00 +34°C° 0,4 mm 1 m/s 749 mmHg 58%
    15:00 +33°C° 0,4 mm 1 m/s 749 mmHg 62%
    16:00 +32°C° 0,4 mm 1 m/s 748 mmHg 66%
    17:00 +30°C° 0,2 mm 1 m/s 749 mmHg 74%
    18:00 +28°C° 0,2 mm 1 m/s 749 mmHg 82%
    19:00 +27°C° 0,2 mm 1 m/s 750 mmHg 89%
    20:00 +26°C° 0,5 mm 1 m/s 750 mmHg 90%
    21:00 +24°C° 0,5 mm 0 m/s 751 mmHg 91%
    22:00 +23°C° 0,5 mm 0 m/s 752 mmHg 92%
    23:00 +23°C° 0,3 mm 0 m/s 752 mmHg 92%

    Après-demain, 21 Février, Mercredi

    Heure Température Précipitation Vent Pression Humidité
    00:00 +23°C° 0,3 mm 0 m/s 752 mmHg 92%
    01:00 +23°C° 0,3 mm 0 m/s 751 mmHg 93%
    02:00 +23°C° 0,1 mm 0 m/s 751 mmHg 93%
    03:00 +23°C° 0,1 mm 0 m/s 751 mmHg 93%
    04:00 +23°C° 0,1 mm 0 m/s 751 mmHg 93%
    05:00 +23°C° 0,1 mm 0 m/s 751 mmHg 92%
    06:00 +23°C° 0,1 mm 0 m/s 751 mmHg 92%
    07:00 +23°C° 0,1 mm 0 m/s 752 mmHg 91%
    08:00 +25°C° 0,2 mm 0 m/s 752 mmHg 82%
    09:00 +28°C° 0,2 mm 0 m/s 752 mmHg 73%
    10:00 +30°C° 0,2 mm 0 m/s 753 mmHg 64%
    11:00 +33°C° 0,4 mm 1 m/s 752 mmHg 61%
    12:00 +33°C° 0,4 mm 1 m/s 751 mmHg 59%
    13:00 +34°C° 0,4 mm 1 m/s 750 mmHg 57%
    14:00 +33°C° 0,7 mm 1 m/s 750 mmHg 61%
    15:00 +32°C° 0,7 mm 1 m/s 749 mmHg 65%
    16:00 +32°C° 0,7 mm 1 m/s 748 mmHg 69%
    17:00 +30°C° 0,4 mm 1 m/s 749 mmHg 76%
    18:00 +28°C° 0,4 mm 1 m/s 750 mmHg 82%
    19:00 +26°C° 0,4 mm 1 m/s 750 mmHg 89%
    20:00 +26°C° 0,1 mm 1 m/s 751 mmHg 89%
    21:00 +26°C° 0,1 mm 1 m/s 752 mmHg 90%
    22:00 +26°C° 0,1 mm 1 m/s 752 mmHg 90%
    23:00 +23°C° 0,5 mm 0 m/s 752 mmHg 90%

    22 Février, Jeudi

    Heure Température Précipitation Vent Pression Humidité
    00:00 +23°C° 0,5 mm 0 m/s 752 mmHg 90%
    01:00 +23°C° 0,5 mm 0 m/s 752 mmHg 90%
    02:00 +23°C° 1,4 mm 0 m/s 751 mmHg 90%
    03:00 +23°C° 1,4 mm 0 m/s 751 mmHg 90%
    04:00 +23°C° 1,4 mm 0 m/s 751 mmHg 89%
    05:00 +23°C° 0,4 mm 0 m/s 752 mmHg 89%
    06:00 +23°C° 0,4 mm 0 m/s 752 mmHg 89%
    07:00 +23°C° 0,4 mm 0 m/s 752 mmHg 89%
    08:00 +24°C° 0,4 mm 0 m/s 753 mmHg 85%
    09:00 +27°C° 0,4 mm 1 m/s 753 mmHg 81%
    10:00 +28°C° 0,4 mm 1 m/s 753 mmHg 77%
    11:00 +29°C° 0 mm 1 m/s 753 mmHg 74%
    12:00 +29°C° 0 mm 1 m/s 752 mmHg 70%
    13:00 +30°C° 0 mm 1 m/s 751 mmHg 67%
    14:00 +31°C° 0 mm 1 m/s 750 mmHg 65%
    15:00 +31°C° 0 mm 1 m/s 750 mmHg 62%
    16:00 +30°C° 0 mm 0 m/s 749 mmHg 60%
    17:00 +30°C° 0,1 mm 1 m/s 749 mmHg 67%
    18:00 +28°C° 0,1 mm 1 m/s 750 mmHg 74%
    19:00 +26°C° 0,1 mm 1 m/s 750 mmHg 82%
    20:00 +26°C° 0,7 mm 1 m/s 751 mmHg 83%
    21:00 +25°C° 0,7 mm 1 m/s 751 mmHg 84%
    22:00 +25°C° 0,7 mm 1 m/s 752 mmHg 86%
    23:00 +25°C° 0,5 mm 1 m/s 752 mmHg 86%

    23 Février, Vendredi

    Heure Température Précipitation Vent Pression Humidité
    00:00 +23°C° 0,5 mm 0 m/s 752 mmHg 87%
    01:00 +22°C° 0,5 mm 0 m/s 751 mmHg 88%
    02:00 +22°C° 0,7 mm 0 m/s 751 mmHg 88%
    03:00 +22°C° 0,7 mm 0 m/s 751 mmHg 88%
    04:00 +22°C° 0,7 mm 0 m/s 751 mmHg 88%
    05:00 +22°C° 0,2 mm 0 m/s 751 mmHg 88%
    06:00 +22°C° 0,2 mm 0 m/s 752 mmHg 88%
    07:00 +22°C° 0,2 mm 0 m/s 752 mmHg 88%
    08:00 +25°C° 0 mm 0 m/s 752 mmHg 79%
    09:00 +27°C° 0 mm 0 m/s 752 mmHg 70%
    10:00 +32°C° 0 mm 1 m/s 753 mmHg 61%
    11:00 +33°C° 0 mm 1 m/s 752 mmHg 56%
    12:00 +34°C° 0 mm 1 m/s 751 mmHg 52%
    13:00 +35°C° 0 mm 1 m/s 750 mmHg 47%
    14:00 +34°C° 0,2 mm 1 m/s 750 mmHg 52%
    15:00 +33°C° 0,2 mm 1 m/s 749 mmHg 56%
    16:00 +32°C° 0,2 mm 1 m/s 748 mmHg 61%
    17:00 +30°C° 0,3 mm 1 m/s 749 mmHg 70%
    18:00 +28°C° 0,3 mm 1 m/s 749 mmHg 78%
    19:00 +26°C° 0,3 mm 1 m/s 750 mmHg 87%
    20:00 +23°C° 0 mm 0 m/s 751 mmHg 88%
    21:00 +23°C° 0 mm 0 m/s 751 mmHg 88%
    22:00 +23°C° 0 mm 0 m/s 752 mmHg 89%
    23:00 +23°C° 0,1 mm 0 m/s 752 mmHg 89%

    24 Février, Samedi

    Heure Température Précipitation Vent Pression Humidité
    00:00 +22°C° 0,1 mm 0 m/s 751 mmHg 90%
    01:00 +22°C° 0,1 mm 0 m/s 751 mmHg 90%
    02:00 +22°C° 0,6 mm 0 m/s 751 mmHg 90%
    03:00 +22°C° 0,6 mm 0 m/s 751 mmHg 90%
    04:00 +22°C° 0,6 mm 0 m/s 751 mmHg 90%
    05:00 +22°C° 0,5 mm 0 m/s 751 mmHg 89%
    06:00 +22°C° 0,5 mm 0 m/s 752 mmHg 88%
    07:00 +22°C° 0,5 mm 0 m/s 752 mmHg 87%
    08:00 +24°C° 0,2 mm 0 m/s 752 mmHg 78%
    09:00 +29°C° 0,2 mm 1 m/s 752 mmHg 69%
    10:00 +31°C° 0,2 mm 1 m/s 752 mmHg 60%
    11:00 +32°C° 0,2 mm 1 m/s 752 mmHg 56%
    12:00 +33°C° 0,2 mm 1 m/s 751 mmHg 52%
    13:00 +34°C° 0,2 mm 1 m/s 750 mmHg 47%
    14:00 +33°C° 0,4 mm 1 m/s 750 mmHg 52%
    15:00 +33°C° 0,4 mm 1 m/s 749 mmHg 58%
    16:00 +32°C° 0,4 mm 1 m/s 749 mmHg 63%
    17:00 +30°C° 0,4 mm 1 m/s 749 mmHg 70%
    18:00 +28°C° 0,4 mm 1 m/s 750 mmHg 78%
    19:00 +25°C° 0,4 mm 1 m/s 750 mmHg 86%
    20:00 +25°C° 0 mm 1 m/s 751 mmHg 86%
    21:00 +25°C° 0 mm 1 m/s 752 mmHg 86%
    22:00 +22°C° 0 mm 0 m/s 752 mmHg 86%
    23:00 +22°C° 0 mm 0 m/s 752 mmHg 87%
    Voir plus